Location: Unspecified
(58.9933°N, 5.6375°E)
Time: 22:02:55
(UTC+01:00)

Resurs 1-4 Rocket - Visible Passes

Search period start: 14 February 2016 00:00
Search period end: 24 February 2016 00:00
Orbit: 801 x 813 km, 98.4° (Epoch: 13 February)

Date Brightness Start Highest point End Pass type
(mag) Time Alt. Az. Time Alt. Az. Time Alt. Az.
14 Feb 4.9 01:57:06 10° NE 01:57:41 11° ENE 01:57:41 11° ENE visible
14 Feb 3.3 03:35:06 10° NNE 03:38:47 39° NE 03:38:47 39° NE visible
14 Feb 2.7 05:15:11 10° N 05:19:52 40° NW 05:19:52 40° NW visible
14 Feb 3.9 06:56:07 10° N 06:58:47 14° NW 07:00:58 11° WNW visible
15 Feb 3.8 03:10:41 10° NNE 03:14:04 30° ENE 03:14:04 30° ENE visible
15 Feb 2.4 04:50:32 10° NNE 04:55:10 52° NW 04:55:10 52° NW visible
15 Feb 3.6 06:31:13 10° N 06:34:39 18° NW 06:36:16 16° WNW visible
16 Feb 4.2 02:46:24 10° NNE 02:49:23 23° ENE 02:49:23 23° ENE visible
16 Feb 2.3 04:25:56 10° NNE 04:30:28 63° N 04:30:28 63° N visible
16 Feb 3.3 06:06:24 10° N 06:10:29 23° NW 06:11:33 21° WNW visible
17 Feb 4.5 02:22:19 10° NE 02:24:40 17° ENE 02:24:40 17° ENE visible
17 Feb 2.5 04:01:22 10° NNE 04:05:46 59° NE 04:05:46 59° NE visible
17 Feb 3.0 05:41:40 10° N 05:46:13 29° NW 05:46:51 29° WNW visible
17 Feb 4.1 07:23:11 10° NNW 07:24:35 11° NNW 07:25:59 10° NW visible
18 Feb 4.8 01:58:44 10° NE 01:59:58 12° ENE 01:59:58 12° ENE visible
18 Feb 3.0 03:36:52 10° NNE 03:41:04 46° ENE 03:41:04 46° ENE visible
18 Feb 2.6 05:16:58 10° N 05:21:54 39° WNW 05:22:09 39° WNW visible
18 Feb 3.9 06:57:56 10° N 07:00:31 14° NW 07:03:06 10° WNW visible
19 Feb 3.5 03:12:27 10° NNE 03:16:22 34° ENE 03:16:22 34° ENE visible
19 Feb 2.3 04:52:18 10° NNE 04:57:27 54° WNW 04:57:27 54° WNW visible
19 Feb 3.7 06:33:01 10° N 06:36:24 17° NW 06:38:33 14° WNW visible
20 Feb 4.0 02:48:09 10° NNE 02:51:40 25° ENE 02:51:40 25° ENE visible
20 Feb 2.1 04:27:42 10° NNE 04:32:46 72° NW 04:32:46 72° NW visible
20 Feb 3.4 06:08:12 10° N 06:12:13 22° NW 06:13:51 19° WNW visible
21 Feb 4.4 02:24:02 10° NE 02:26:58 18° ENE 02:26:58 18° ENE visible
21 Feb 2.2 04:03:08 10° NNE 04:08:04 72° NE 04:08:04 72° NE visible
21 Feb 3.1 05:43:27 10° N 05:47:58 29° NW 05:49:09 26° WNW visible
22 Feb 4.7 02:00:22 10° NE 02:02:17 13° ENE 02:02:17 13° ENE visible
22 Feb 2.7 03:38:38 10° NNE 03:43:21 53° ENE 03:43:21 53° ENE visible
22 Feb 2.7 05:18:45 10° N 05:23:39 38° WNW 05:24:27 36° WNW visible
22 Feb 4.0 06:59:45 10° N 07:02:15 13° NW 07:04:45 10° WNW visible
23 Feb 3.3 03:14:13 10° NNE 03:18:40 38° E 03:18:40 38° E visible
23 Feb 2.2 04:54:06 10° NNE 04:59:17 52° WNW 04:59:46 50° W visible
23 Feb 3.7 06:34:49 10° N 06:38:08 17° NW 06:40:51 12° WNW visible
